Location: Buena Vista
(37.7110°N, 119.7938°W)
Time: 18:41:54
(UTC+00:00)

Envisat - Pass Details

Date: 17 August 2024
Orbit: 762 x 764 km, 98.3° (Epoch: 11 September)

Event Time Altitude Azimuth Distance (km) Brightness Sun altitude
Rises 10:46:49 0° 18° (NNE) 3,232 7.2 -26.3°
Reaches altitude 10° 10:49:12 10° 23° (NNE) 2,302 6.3 -25.9°
Maximum altitude 10:54:09 53° 100° (E) 936 3.5 -25.2°
Enters shadow 10:55:42 38° 151° (SSE) 1,146 3.7 -25.0°
